Theta_e
331 329 328 328 327 326 327 327 327 325 325 324 325 325 322 322 317 313 310 312 313 316 322 319 322 325 326 326 328 329 329 333 336 338 342 344 345 345 344 344 343 343 343 342 342 343 344 344 345 348 349 350 350 351 351 352 353 354 354 355 355 355 355 353 352 352 352 352 352 352 353 355 357 359
329 332 331 330 326 328 326 325 325 325 324 323 323 322 321 324 320 318 313 312 315 316 318 320 319 322 323 325 326 327 327 333 333 334 337 340 344 343 342 343 343 343 342 341 340 341 341 342 343 343 344 346 347 349 349 349 350 351 352 353 354 354 353 351 352 352 352 352 353 351 352 353 354 355
332 331 329 326 325 325 325 324 324 325 325 322 321 321 320 320 319 320 318 312 316 318 315 317 321 321 322 323 324 325 326 329 331 331 333 336 341 344 344 342 341 341 340 339 339 338 337 338 339 340 340 342 344 345 347 347 348 349 350 352 352 352 351 350 351 352 352 352 352 350 351 352 353 353
333 330 329 328 327 325 325 324 324 322 323 323 319 319 318 318 318 319 318 315 313 316 317 318 320 321 321 322 321 322 324 328 333 330 331 333 339 338 343 345 342 340 339 338 337 336 335 336 338 338 339 341 342 344 344 343 345 346 348 348 350 351 350 347 348 350 351 351 350 350 351 351 351 352
331 331 330 328 327 326 324 324 323 322 321 321 322 320 317 317 318 317 316 314 314 316 318 319 319 320 321 320 321 321 322 324 325 330 329 331 333 336 338 341 343 342 339 337 336 335 335 335 336 337 339 340 341 343 344 343 343 344 343 344 345 347 347 345 345 347 349 349 349 350 350 349 349 350
330 330 328 327 327 326 325 324 323 322 320 320 318 317 319 317 317 318 316 315 314 313 316 317 319 319 321 318 321 320 321 322 325 325 327 329 331 334 338 341 342 343 341 337 335 334 334 334 335 335 337 338 340 341 342 341 341 341 340 340 341 341 341 341 342 344 345 347 348 349 348 348 348 349
328 328 328 327 326 327 324 324 323 322 321 320 319 318 318 317 317 318 318 316 314 314 315 318 317 318 319 318 319 321 322 324 325 325 326 328 332 335 337 340 343 343 341 338 336 335 334 334 335 335 336 336 336 337 337 337 338 337 337 337 339 338 338 338 340 342 343 345 346 348 347 347 347 347
328 327 326 326 326 325 324 322 321 321 321 320 320 318 318 318 318 318 318 318 316 317 315 318 318 319 317 318 320 321 323 323 324 326 327 330 331 333 335 337 340 341 339 338 336 336 335 334 333 333 333 333 332 332 332 333 334 334 333 334 334 335 335 334 336 339 339 340 342 345 345 346 345 342
329 327 326 326 325 324 323 322 320 320 319 320 319 318 318 318 318 319 319 318 318 317 317 318 320 319 318 319 319 321 320 322 323 325 325 327 329 331 334 337 339 339 338 338 336 335 334 334 333 332 332 332 331 331 330 330 331 331 331 331 332 332 333 333 332 334 335 336 337 337 339 341 342 342
329 328 326 326 325 323 322 321 321 320 319 319 318 318 317 317 318 317 317 318 319 319 319 318 318 318 316 316 318 320 321 320 320 321 324 326 329 331 332 335 338 340 342 343 343 338 336 335 333 332 332 332 331 330 329 328 327 327 327 326 326 329 330 330 332 331 331 332 334 335 336 337 338 339
328 327 326 325 324 323 322 321 321 320 319 320 319 320 318 318 317 317 317 318 319 320 319 319 318 316 317 317 316 319 321 321 321 320 321 322 326 328 330 331 336 339 342 343 341 342 340 338 336 332 330 331 331 330 329 327 325 324 323 323 322 323 324 325 328 329 329 329 330 330 330 332 336 338
327 327 326 325 324 324 323 323 322 321 320 320 319 319 319 318 318 316 318 319 320 320 320 318 316 315 315 316 318 319 319 317 318 320 320 319 320 322 326 329 330 335 338 340 342 341 340 338 335 332 331 331 331 330 330 330 329 326 324 323 325 325 323 323 325 326 325 325 325 325 326 327 330 334
327 326 326 325 324 327 329 326 324 322 321 321 319 319 319 319 318 317 318 320 321 320 319 317 316 314 314 315 315 315 315 315 315 318 319 319 321 323 324 326 330 333 335 337 339 341 342 341 340 340 338 338 335 333 333 334 334 330 325 324 325 326 325 323 323 324 324 324 323 323 324 326 328 331
326 326 325 327 332 329 326 324 324 321 319 318 321 321 319 319 318 318 318 319 321 320 318 316 314 313 313 314 315 315 315 317 318 317 318 318 320 321 322 324 326 331 334 335 335 338 343 342 341 341 339 341 340 339 337 336 337 334 328 326 325 326 326 323 323 322 323 323 322 322 321 323 326 327
328 327 325 324 328 330 329 329 326 324 321 320 318 318 318 319 321 320 320 320 320 320 318 317 315 314 313 314 316 315 315 316 316 317 318 318 319 318 318 317 322 330 334 334 333 335 341 342 340 341 342 342 342 341 340 337 335 332 330 328 327 326 326 325 325 324 322 321 321 321 320 321 323 324
326 326 325 326 326 326 326 326 326 326 325 321 319 318 317 317 317 318 321 321 320 320 318 316 315 315 314 315 315 315 315 315 316 317 317 318 318 318 318 319 318 325 335 333 331 333 338 341 340 340 342 343 344 344 339 335 334 332 330 330 328 327 326 326 327 327 325 323 323 324 323 323 324 324
326 326 326 326 326 326 328 331 327 323 323 322 320 318 318 317 317 318 317 317 321 322 319 317 316 316 316 315 315 316 316 317 315 316 317 318 318 319 319 319 320 323 328 329 329 330 335 339 338 339 342 344 345 345 338 335 335 332 330 330 330 328 327 326 326 326 326 325 323 323 323 323 322 322
326 326 325 325 325 324 325 324 323 322 320 320 321 320 321 322 323 319 318 316 316 317 320 319 316 317 318 317 317 319 319 317 316 316 316 317 318 318 319 321 322 324 328 326 328 328 332 338 338 338 341 344 345 345 341 334 332 332 330 329 328 327 326 325 325 325 325 325 323 322 321 320 320 320
325 325 325 324 323 324 323 324 324 321 320 319 319 319 319 320 321 322 323 323 322 322 320 318 318 319 320 319 319 319 319 318 317 318 317 318 319 320 322 323 324 324 327 328 328 322 328 336 335 338 340 343 344 346 338 333 331 331 328 328 328 327 326 325 325 324 324 324 323 321 320 318 317 316
324 325 324 323 323 323 322 321 319 320 321 318 318 317 319 319 320 320 318 318 319 321 321 320 321 321 321 316 318 318 317 316 317 318 320 320 320 319 318 317 320 321 325 328 326 324 325 334 335 337 341 342 342 344 346 335 330 329 328 328 327 326 324 324 325 324 324 324 323 321 318 315 314 313
324 324 324 323 323 323 323 321 318 317 317 317 318 318 317 316 315 317 320 318 316 315 313 312 313 313 312 313 312 312 313 316 317 318 317 316 318 316 315 316 318 319 322 325 327 326 325 333 336 335 338 340 340 341 344 346 332 329 327 327 326 324 323 323 322 323 323 323 323 322 320 315 313 313
323 324 332 332 327 326 325 320 317 316 317 317 315 313 313 314 316 318 320 321 320 315 314 314 314 315 315 314 313 313 313 314 315 318 315 318 318 316 316 315 318 320 322 323 329 327 326 332 336 334 334 336 338 340 342 345 342 329 325 325 325 323 323 322 321 322 322 322 322 321 318 314 313 317
322 322 326 326 324 323 322 315 315 312 312 314 312 312 314 316 317 318 318 316 315 316 316 317 319 318 317 319 319 320 315 315 316 321 321 322 320 317 317 318 318 317 319 324 331 327 329 332 334 334 332 332 337 340 341 342 344 339 334 332 328 323 323 322 320 318 319 320 320 320 316 313 314 322
318 318 318 321 319 316 311 310 307 305 306 310 313 314 315 316 314 315 314 315 315 315 316 316 318 319 319 318 318 318 319 321 324 322 322 322 321 319 318 319 319 317 318 324 333 330 331 333 332 336 334 331 330 332 338 339 342 342 338 335 332 326 323 322 319 316 316 317 317 317 315 312 315 325
315 316 317 318 318 314 310 304 302 302 303 306 311 315 315 314 315 309 310 314 315 316 317 318 318 318 318 317 317 317 318 320 321 322 322 323 322 321 320 319 320 320 321 327 331 333 330 333 331 334 334 334 330 331 334 337 339 340 340 339 337 334 329 328 325 325 315 313 313 313 312 312 313 323
314 315 316 317 318 313 310 303 302 301 302 305 312 315 306 304 305 311 315 316 316 315 315 316 316 316 316 315 315 316 317 318 320 321 322 322 323 324 324 322 321 320 320 325 327 335 332 331 333 333 334 332 332 332 331 331 334 338 339 341 341 338 332 331 330 329 324 320 319 314 317 312 314 317
313 315 316 317 319 310 303 301 301 301 302 305 310 304 305 306 308 311 314 315 313 313 314 315 314 314 314 314 314 315 316 317 319 320 322 322 323 325 326 326 326 325 325 327 333 336 335 332 336 334 333 334 332 332 331 330 332 336 337 338 339 337 334 335 332 331 325 323 323 314 312 312 313 316
312 313 314 315 307 301 298 300 302 302 304 313 304 306 307 308 310 314 313 311 311 313 313 312 312 312 314 314 313 314 316 317 319 320 322 322 324 324 325 326 328 328 327 329 336 337 337 335 335 336 336 334 332 331 330 332 332 335 336 338 338 336 333 334 334 333 328 326 324 319 319 316 316 316
315 310 304 302 302 302 303 303 304 305 307 307 309 308 309 311 310 311 310 309 310 310 310 311 311 311 313 313 314 316 317 319 320 320 321 322 322 324 325 326 327 328 329 331 336 338 338 337 335 336 335 335 334 333 333 331 333 334 337 335 335 334 332 334 335 333 328 326 324 321 320 320 318 319
309 307 306 306 308 312 314 313 316 316 313 312 311 312 313 310 308 309 309 308 307 308 309 310 310 310 312 313 314 316 317 316 316 317 318 319 318 321 322 322 323 326 328 330 335 339 339 338 336 335 334 334 335 333 333 332 332 335 336 337 337 335 334 334 334 334 329 326 325 323 324 324 322 320
308 310 313 312 311 310 312 315 315 315 315 313 311 310 310 309 308 309 308 307 307 309 308 309 309 310 312 313 314 313 314 314 315 317 318 318 317 318 321 323 322 323 325 329 335 338 335 336 335 334 332 332 332 333 333 333 331 333 335 337 336 331 332 334 335 334 331 330 328 325 325 328 326 325
307 309 311 314 315 314 312 310 309 308 309 310 310 307 307 308 308 310 309 308 307 307 309 309 309 310 310 310 311 312 312 313 314 316 316 317 317 318 317 315 315 317 320 327 333 337 341 337 334 334 334 333 331 333 332 332 332 333 334 336 336 337 335 334 335 335 334 333 330 326 327 329 328 326
306 309 310 310 309 308 309 307 305 304 304 306 306 306 305 305 304 304 304 303 303 305 307 307 307 308 308 309 310 311 310 311 313 314 314 316 316 318 316 314 315 315 316 317 320 328 334 336 339 336 335 336 334 334 333 331 333 333 334 335 336 336 335 336 336 336 336 333 330 329 329 331 333 330
304 307 305 306 305 305 304 303 303 302 302 303 302 302 305 305 303 304 303 302 303 305 306 306 306 306 307 307 308 309 309 310 311 312 313 314 316 315 315 314 314 316 317 316 318 319 322 332 334 336 330 323 320 320 324 332 332 333 334 335 335 335 336 337 337 338 335 334 332 329 329 330 334 334
306 304 304 303 303 303 302 302 301 301 300 301 300 300 301 301 302 303 301 301 303 304 305 305 305 306 306 306 306 307 308 309 309 310 312 313 314 313 314 315 314 314 315 316 316 318 319 325 332 328 326 326 324 321 319 317 326 331 333 334 336 336 335 337 337 337 336 335 334 331 330 331 332 335
303 302 301 301 301 301 300 301 301 300 299 299 298 297 298 298 300 300 299 300 301 303 303 303 303 304 304 305 305 307 308 308 308 308 309 310 311 312 313 314 316 315 315 315 316 318 319 319 327 327 324 324 323 320 316 314 313 312 325 332 333 334 335 336 337 336 335 334 334 332 329 329 331 334
301 301 300 299 299 298 298 299 299 299 299 298 298 297 297 296 297 298 299 299 301 302 302 302 301 303 304 304 304 305 307 307 306 307 307 308 310 310 309 312 314 315 315 315 317 318 318 318 318 323 326 323 322 320 317 318 312 310 308 318 328 333 334 334 334 334 335 334 333 333 332 331 331 333
300 300 299 301 300 300 300 299 300 300 299 300 298 298 297 297 297 298 298 298 299 300 300 299 301 302 302 303 302 303 305 306 306 305 306 306 307 308 308 309 311 312 314 315 317 318 319 317 317 316 318 322 321 317 313 313 313 312 307 310 321 329 334 333 331 332 333 335 334 334 334 332 332 333
300 301 301 301 301 301 300 300 300 298 298 298 297 297 296 295 295 297 297 297 298 298 298 299 299 301 301 300 302 302 303 304 304 304 305 305 306 306 307 307 308 310 313 314 316 317 318 317 317 316 315 314 313 312 312 311 310 314 310 305 313 325 325 329 332 332 333 332 333 331 329 328 327 327
301 302 301 301 300 301 300 299 297 297 296 296 294 296 294 295 294 295 296 297 297 297 297 298 300 299 299 299 300 301 302 303 304 304 304 304 305 306 306 307 307 308 310 312 313 315 316 317 318 318 318 316 316 317 317 316 316 317 316 312 304 308 311 319 327 329 329 331 331 329 327 329 328 328
300 298 298 299 299 299 299 297 296 298 296 295 294 297 294 292 292 294 295 296 297 295 296 296 297 298 298 298 298 299 299 301 302 303 304 304 304 306 307 307 305 306 307 309 311 314 316 318 323 318 323 321 322 322 317 313 311 313 314 316 309 307 307 310 313 315 317 323 329 328 327 327 328 327
299 298 298 297 297 298 298 298 297 295 294 293 293 293 291 292 292 294 295 295 294 295 295 295 296 297 298 298 298 299 298 299 300 301 303 302 302 303 306 305 304 305 305 306 308 312 318 321 323 321 321 320 318 314 311 312 311 312 314 316 318 312 310 309 309 311 313 313 318 324 325 324 325 325
299 297 298 300 299 298 298 296 294 293 292 292 292 292 289 288 288 289 290 291 291 293 293 294 295 296 297 297 297 299 298 298 298 299 300 301 301 301 302 304 305 305 306 307 309 313 317 320 320 319 318 317 316 315 312 313 313 313 313 314 315 317 318 315 312 312 313 312 311 311 314 319 322 321
297 298 297 298 298 296 295 293 291 290 290 290 291 290 289 287 287 288 288 289 290 291 292 293 294 294 295 297 297 297 298 298 298 298 298 300 301 301 302 303 305 305 305 306 308 311 314 318 319 319 317 315 316 313 311 312 312 313 313 314 315 315 315 317 318 315 316 315 312 312 313 311 310 310
299 297 296 297 297 296 294 292 290 288 287 288 287 288 289 286 288 287 288 289 290 290 292 291 293 294 295 297 296 296 298 299 298 298 299 299 299 300 301 302 303 303 304 305 306 308 311 315 317 318 317 317 317 316 317 315 312 312 313 313 313 314 315 315 314 314 314 315 313 311 312 313 314 313
Wind_Speed
4 3 4 5 5 4 3 2 2 1 1 1 1 1 1 1 3 3 3 5 4 2 2 4 2 5 6 8 8 9 9 13 16 11 11 11 11 15 18 19 20 21 22 22 23 24 24 24 24 25 26 26 25 25 25 24 24 24 24 23 23 22 21 20 21 21 21 21 21 21 21 21 18 18
4 4 3 4 4 3 3 3 2 2 2 1 0 0 1 1 3 3 4 5 2 5 3 2 4 7 10 8 9 8 10 15 18 13 13 12 11 16 19 20 20 20 21 22 22 23 24 24 24 24 24 24 24 24 24 24 24 24 24 24 23 22 21 21 21 21 21 21 21 21 21 21 21 20
4 4 4 3 3 3 3 2 3 3 3 2 1 1 1 1 2 4 4 5 4 2 6 5 7 8 10 10 10 10 10 12 16 13 13 13 16 20 17 20 20 20 21 21 22 22 23 23 23 23 23 23 24 24 24 24 23 23 24 23 23 22 22 21 21 21 21 21 21 21 21 21 21 20
4 4 4 4 4 3 3 3 4 3 3 3 3 2 2 3 3 3 3 7 10 4 6 8 9 10 10 10 12 12 10 11 17 12 12 14 20 15 12 17 20 20 21 21 21 22 23 23 23 23 23 23 24 25 24 23 23 23 23 23 23 23 22 22 21 21 21 21 21 21 21 21 20 20
2 5 6 5 5 3 3 4 4 4 3 3 4 3 3 4 3 3 4 6 10 7 4 6 8 9 9 10 9 12 12 12 11 12 12 13 13 13 12 12 17 19 20 22 22 21 22 22 23 23 24 24 24 25 25 24 23 23 23 23 23 23 22 22 22 22 21 21 21 21 21 20 20 19
4 5 6 6 5 4 5 4 4 4 4 4 4 4 4 4 5 4 4 6 6 11 6 7 6 9 7 10 9 10 13 13 12 13 13 11 11 12 12 11 12 17 18 20 22 22 21 21 21 22 23 23 23 24 24 23 23 23 23 23 22 22 22 22 22 22 22 22 22 22 21 20 19 19
5 5 6 7 6 4 4 5 5 4 5 4 5 5 4 4 6 5 6 5 6 8 9 7 9 8 8 8 12 11 11 12 12 13 13 12 10 10 11 12 11 15 17 19 20 22 21 20 20 21 22 23 23 23 23 22 22 22 22 22 22 22 22 22 22 22 22 22 22 22 21 21 20 19
5 6 6 6 6 5 5 6 6 6 5 5 6 5 5 5 6 6 5 6 6 6 10 9 9 9 9 10 10 10 10 12 11 10 12 12 11 11 11 12 12 13 18 19 20 21 21 20 20 21 21 22 21 21 20 20 21 21 21 21 22 22 22 22 22 22 22 22 22 22 22 21 20 19
6 6 7 7 6 6 6 6 6 6 6 6 6 6 6 6 6 5 5 6 4 7 9 12 8 9 9 9 10 10 10 11 10 10 11 12 12 12 11 10 11 16 20 19 20 20 21 21 21 20 20 20 20 20 20 20 21 21 22 22 22 21 22 21 21 21 21 21 21 21 21 21 20 19
5 6 6 7 6 6 7 7 7 6 7 6 6 7 7 6 5 6 6 5 5 7 9 11 11 8 10 10 9 9 9 10 12 12 11 11 10 10 10 10 9 9 9 8 10 14 17 20 21 21 20 20 20 20 20 20 21 21 22 22 22 22 22 22 22 21 21 21 21 21 21 21 20 19
5 6 6 6 6 6 7 8 8 8 7 7 8 8 8 7 6 6 6 5 6 7 9 10 9 10 8 8 11 10 8 10 10 12 12 12 9 8 9 11 10 9 11 13 16 13 12 15 14 17 20 20 21 20 20 20 21 21 21 21 21 22 22 22 22 21 21 21 21 21 20 20 20 19
6 6 6 6 6 7 7 7 8 8 8 7 8 8 6 7 5 3 6 6 7 7 9 9 10 8 9 9 8 9 8 9 9 8 9 13 14 12 10 10 11 10 10 10 9 10 12 13 15 17 19 21 22 22 21 22 21 22 21 21 22 22 22 22 21 21 20 20 20 20 20 19 19 19
6 5 5 5 6 7 9 12 11 10 10 7 7 7 5 4 5 6 6 6 7 7 8 10 9 9 9 9 9 10 10 10 12 12 11 12 12 12 12 12 10 10 11 10 10 10 8 9 9 9 9 11 16 18 20 17 21 22 20 21 21 21 21 21 21 21 21 20 20 20 20 20 20 20
5 6 5 6 10 11 11 11 12 12 13 11 8 7 5 6 6 6 6 7 7 8 11 9 9 9 10 10 10 10 11 12 11 12 12 12 12 11 12 12 10 8 9 10 11 11 8 8 9 8 10 10 11 10 11 12 14 17 20 21 21 21 21 21 21 21 21 20 20 19 19 19 19 20
6 6 5 5 6 7 7 7 9 10 10 11 12 12 10 9 8 7 8 8 8 9 10 8 8 9 11 11 11 11 12 11 11 11 11 12 12 11 12 14 12 6 8 9 10 11 9 8 10 9 10 10 9 9 11 16 19 20 20 22 22 22 22 21 21 21 20 20 19 19 19 19 19 19
6 6 6 5 4 4 5 5 5 7 8 8 8 9 11 12 14 13 10 9 8 9 8 8 9 10 11 12 11 12 11 12 13 12 12 13 13 13 13 12 13 8 4 9 10 12 8 8 10 10 10 10 9 11 14 18 19 20 21 21 22 22 22 22 21 21 20 20 20 20 20 20 20 19
7 7 7 6 5 5 8 7 5 4 4 7 9 10 12 13 14 14 15 16 13 10 9 9 11 11 11 12 13 12 13 13 15 15 13 13 13 12 14 14 12 13 7 9 12 12 9 8 10 11 11 10 9 11 15 19 20 20 21 21 21 21 21 21 21 20 20 20 20 20 20 20 19 19
7 7 7 6 6 5 5 5 5 4 4 5 6 6 6 7 9 11 13 14 16 15 11 10 12 12 10 13 14 15 13 13 15 15 16 15 15 15 15 15 14 14 7 10 9 12 10 8 9 11 11 9 10 10 13 18 19 19 20 20 20 20 20 20 20 20 20 20 20 20 20 19 18 18
7 6 6 5 6 6 6 6 6 4 4 5 6 6 7 7 7 7 7 8 7 6 6 8 9 11 13 13 15 15 14 14 15 15 18 18 17 16 15 14 15 14 10 10 9 14 11 6 10 11 10 8 10 9 12 16 18 19 20 20 20 20 20 20 20 20 20 21 21 21 19 18 17 17
6 6 5 5 6 6 6 9 10 6 5 4 6 7 7 7 6 7 8 10 11 10 9 9 11 12 14 17 17 18 16 15 16 16 16 15 14 14 14 16 12 13 10 11 11 12 12 8 10 10 8 7 8 8 8 13 19 19 20 19 20 20 20 20 20 20 21 21 21 20 19 18 17 17
5 4 4 4 6 6 6 10 9 5 5 4 6 6 7 6 6 8 7 9 12 13 14 16 19 21 22 23 24 24 26 20 18 15 15 16 13 13 17 15 13 14 9 9 12 12 13 9 9 9 7 7 8 8 8 8 13 19 19 20 20 20 19 20 20 20 20 21 20 19 18 18 17 17
4 5 9 8 5 6 7 10 6 4 5 4 5 5 5 6 7 9 7 7 8 10 12 15 18 20 21 22 23 23 23 23 19 14 16 17 14 15 14 14 13 10 9 12 11 11 14 10 8 8 3 3 6 8 8 9 9 14 16 19 19 19 19 19 20 20 20 20 19 18 18 17 16 11
4 5 5 8 8 7 8 11 5 6 3 4 4 4 5 6 7 8 7 8 11 11 11 11 11 12 15 14 14 15 21 23 20 16 17 16 14 14 13 14 12 11 12 12 12 13 11 11 9 7 4 7 6 6 8 8 7 7 8 9 11 17 19 20 20 20 19 19 18 18 17 16 14 9
5 4 5 6 8 9 6 3 4 4 5 4 3 3 4 6 9 5 7 9 9 11 10 11 11 13 13 13 13 14 15 16 16 17 15 14 13 13 13 14 14 13 11 6 13 12 9 9 9 9 8 5 5 3 6 7 8 7 7 7 8 12 16 16 15 19 18 18 18 17 17 17 15 9
5 6 6 6 7 8 4 3 2 4 5 7 4 4 4 4 7 8 7 10 11 9 10 10 11 11 11 11 12 13 14 15 15 15 16 14 13 13 12 14 14 13 12 8 12 12 9 8 9 7 9 8 3 2 2 5 6 7 8 9 9 7 8 9 7 8 11 15 15 16 16 18 19 14
5 5 5 5 8 9 1 4 5 4 6 8 4 4 6 9 9 8 7 7 7 8 8 8 9 10 10 11 12 14 15 16 17 17 17 16 13 11 12 13 13 12 13 12 13 12 9 8 10 9 8 9 7 5 3 2 3 6 6 7 8 8 9 9 8 8 8 8 9 11 14 18 18 19
5 5 5 6 8 9 6 4 6 7 9 7 4 6 6 6 9 8 5 6 7 7 7 8 9 10 10 11 13 15 16 18 19 18 18 20 14 9 10 12 12 13 10 7 11 11 11 8 8 11 10 9 9 7 5 5 3 3 5 6 6 5 7 7 9 8 8 10 9 14 14 16 17 18
5 5 5 6 11 12 9 5 6 9 8 4 7 4 4 8 7 5 6 6 6 7 7 8 9 10 11 11 12 14 15 16 19 19 18 18 17 6 7 10 12 10 9 10 10 13 11 10 7 9 10 10 10 9 8 4 3 6 7 5 5 6 6 7 7 7 7 8 7 8 8 8 8 10
3 6 10 11 11 11 6 6 8 5 6 6 3 2 6 7 5 5 5 6 6 7 8 9 9 9 10 11 12 13 13 15 17 16 16 16 15 7 4 5 6 7 8 9 8 9 10 10 9 8 8 8 9 8 8 6 7 6 6 6 4 5 7 7 6 8 8 8 10 11 12 11 11 10
9 10 10 9 6 2 6 6 3 1 0 3 6 8 6 4 6 5 6 6 6 7 8 9 9 10 10 11 12 13 12 13 15 17 17 15 14 13 4 3 3 5 6 8 8 6 7 7 5 6 8 8 8 7 7 5 4 5 6 8 5 3 5 7 8 6 9 10 10 11 10 8 13 13
6 7 6 3 3 7 8 6 3 4 4 4 5 5 5 4 5 5 5 6 6 7 8 9 9 10 10 10 11 12 12 13 14 13 16 14 13 13 11 1 3 5 7 9 8 5 6 6 3 5 7 5 4 6 5 5 5 5 6 7 7 7 5 6 6 7 9 8 8 7 8 8 7 8
6 4 6 3 3 5 5 6 5 5 5 4 4 5 4 4 4 6 7 6 4 5 6 7 8 9 10 11 11 11 11 12 13 14 14 15 13 12 11 11 11 8 6 4 4 7 9 8 8 7 7 7 7 5 3 5 6 5 5 6 7 4 5 8 8 7 8 7 7 8 8 7 8 10
4 2 3 4 5 5 5 5 5 5 5 6 5 5 5 5 5 5 6 7 8 8 8 9 9 10 10 10 10 10 11 12 12 13 14 15 14 11 10 11 10 11 10 9 8 6 4 8 9 10 9 6 3 5 7 5 6 5 6 6 6 6 5 7 8 7 8 8 8 8 7 8 7 8
1 4 4 5 5 5 5 5 5 6 5 6 6 6 6 6 5 6 6 7 8 8 8 8 9 10 9 10 10 10 10 12 12 12 13 14 13 12 11 11 11 8 7 8 8 8 7 4 7 6 4 8 10 9 3 5 6 6 6 5 7 7 5 7 7 8 9 10 11 10 8 8 7 7
4 4 5 4 5 4 5 5 5 5 5 5 6 6 6 5 6 6 7 7 8 7 8 8 8 8 9 9 10 10 11 11 11 12 11 12 12 11 12 12 11 12 10 10 9 9 7 5 7 6 4 5 5 7 13 9 2 3 5 6 7 7 6 7 8 8 9 7 7 10 10 8 8 7
4 4 4 4 4 4 5 4 3 4 4 4 5 5 6 7 6 7 7 8 7 7 7 8 8 9 9 9 9 9 10 10 10 11 11 11 11 12 11 11 11 10 10 10 10 8 7 6 4 10 8 7 6 4 2 12 14 6 3 5 4 5 5 6 7 8 9 8 9 9 10 10 9 8
5 4 4 4 4 4 5 3 4 4 4 4 5 5 5 6 6 6 6 7 6 6 7 7 7 8 8 9 9 9 9 10 11 10 11 11 10 11 12 12 12 11 11 11 9 9 9 7 6 3 10 8 9 8 4 1 8 11 3 1 1 5 6 5 5 6 8 10 8 8 9 8 8 8
4 4 4 4 4 4 3 3 3 3 4 4 4 5 5 5 6 6 6 6 7 7 8 8 8 8 8 9 9 10 9 9 9 11 11 11 12 12 12 11 11 12 11 11 9 9 8 9 9 8 1 8 9 8 5 4 4 10 12 2 2 1 4 6 6 7 6 7 10 9 6 7 8 8
4 3 3 3 3 2 2 3 4 4 4 4 4 5 5 5 6 6 6 6 7 7 8 8 8 8 8 8 8 8 9 10 11 11 11 11 10 11 12 12 12 12 12 13 13 12 12 12 11 9 7 6 5 4 8 9 6 2 11 20 6 1 2 2 7 7 7 7 6 4 3 2 4 7
3 2 2 3 4 3 3 2 3 4 4 4 4 4 5 5 6 6 6 7 7 8 7 8 9 9 8 9 9 8 8 9 9 9 10 10 10 10 10 10 10 11 11 12 13 13 13 13 12 9 8 9 7 5 8 10 7 6 11 15 18 11 5 3 1 2 5 5 6 7 6 5 5 3
2 3 3 2 2 2 2 2 3 4 4 4 4 5 5 5 5 6 6 7 7 7 8 8 8 8 8 9 9 9 9 9 9 9 10 10 11 10 12 11 10 11 10 11 11 12 13 11 13 18 11 4 2 3 1 10 13 9 10 9 13 18 19 15 9 6 4 2 3 6 7 7 6 6
3 2 1 2 2 1 2 4 4 4 4 4 5 5 5 5 5 8 7 8 7 7 7 7 8 8 8 8 8 8 8 9 9 10 10 10 10 11 12 10 9 10 10 10 10 10 10 8 10 9 9 8 7 8 13 9 9 8 6 6 7 10 14 17 19 16 10 6 3 1 2 1 2 4
2 3 2 1 1 3 5 5 4 4 4 4 4 5 5 5 5 6 6 7 7 6 7 7 8 8 8 8 8 8 7 8 9 9 9 9 9 9 10 9 8 7 7 7 7 8 8 8 8 9 9 9 9 8 10 9 8 7 7 7 8 7 9 11 14 17 20 18 12 4 1 1 1 4
2 2 2 1 3 5 5 5 5 5 4 4 4 4 5 5 5 6 5 6 6 7 7 7 7 8 8 8 8 8 8 8 8 8 8 8 8 8 8 9 8 8 8 8 8 8 7 6 7 7 9 9 7 8 9 9 9 7 6 6 6 8 9 8 8 9 14 21 21 16 15 15 9 6
0 1 2 2 4 5 5 4 5 5 5 4 4 5 4 4 5 5 5 6 6 7 7 7 7 7 8 7 7 8 9 9 8 8 7 7 8 8 8 8 9 9 9 8 8 8 8 6 5 6 7 7 7 7 7 7 7 6 7 7 9 8 8 8 10 10 10 11 16 17 18 22 23 25
Wind_Direction
228 230 210 202 216 237 228 236 235 223 209 205 202 193 231 219 280 301 299 305 309 284 325 321 312 340 317 309 307 302 293 293 293 287 281 274 268 264 259 253 247 243 241 238 237 235 235 235 234 234 234 232 230 230 228 227 229 230 230 230 231 232 232 232 234 234 234 234 235 235 236 237 235 235
222 219 213 207 214 222 200 220 224 195 196 168 172 208 234 199 234 247 282 288 253 279 306 276 289 317 311 307 301 301 296 296 298 291 287 284 274 265 262 257 250 245 241 240 237 236 235 234 233 232 231 232 231 231 230 227 226 229 231 231 231 232 233 233 233 234 233 234 234 235 236 237 238 237
220 221 224 223 225 220 212 209 219 209 174 169 168 187 206 245 204 243 271 290 263 241 302 290 288 296 300 303 301 296 293 292 296 292 286 283 281 274 265 259 254 248 243 240 238 236 234 231 230 230 229 229 230 231 232 231 228 227 230 231 231 231 232 233 233 234 234 234 234 233 234 236 237 238
229 235 234 232 220 227 206 208 214 214 196 167 168 188 211 242 226 216 238 252 272 262 273 283 290 293 297 300 299 297 296 293 297 294 290 285 285 281 273 264 255 250 247 242 237 235 234 232 230 229 228 227 228 230 231 231 230 229 230 230 231 231 231 232 233 234 234 235 234 234 233 234 236 237
23 279 258 244 228 212 200 215 218 212 211 191 191 198 199 234 239 215 238 262 279 283 242 273 288 292 299 297 291 298 299 299 298 292 288 288 285 281 273 269 260 250 247 245 240 235 232 231 231 231 230 228 228 228 228 227 227 229 231 231 230 231 231 232 233 234 234 234 234 234 233 232 232 233
209 238 247 244 233 212 206 212 216 212 210 206 213 225 213 228 244 214 218 247 269 289 300 292 287 293 291 292 295 298 303 301 300 295 291 284 279 278 277 270 267 257 249 246 244 239 234 230 229 230 231 230 229 228 227 227 226 227 229 230 230 230 230 231 231 232 233 233 234 233 232 231 230 229
215 234 239 239 232 219 215 222 221 211 217 210 215 233 214 230 242 239 217 239 266 280 292 296 298 296 299 292 299 298 293 292 293 293 290 288 284 276 272 270 266 260 250 246 244 243 239 233 228 228 229 230 230 229 228 227 226 226 226 228 229 229 229 229 230 230 231 232 233 233 232 231 229 227
212 218 230 243 237 225 220 224 224 223 218 214 220 235 235 224 243 243 242 231 253 276 292 296 295 296 299 293 288 290 290 292 293 291 291 287 282 279 274 269 266 261 253 244 241 242 241 236 232 227 226 227 229 230 230 229 228 226 225 225 226 228 229 229 229 229 230 231 233 233 233 233 231 227
213 220 223 236 234 228 226 232 231 228 224 224 217 226 234 232 239 247 243 252 248 277 286 296 289 291 284 282 287 289 297 299 295 292 291 292 291 285 276 269 264 261 256 247 239 237 238 237 235 234 231 230 229 228 228 228 229 228 226 224 224 225 227 228 228 229 229 230 231 233 233 233 231 228
224 224 230 235 231 226 223 232 232 231 233 230 228 230 235 234 233 240 252 249 255 264 281 290 293 287 291 295 287 292 294 297 302 301 294 290 285 286 288 277 269 261 255 252 241 237 238 238 236 234 232 231 231 231 229 228 228 228 228 226 224 224 225 227 227 227 228 229 230 230 231 232 230 229
235 236 238 237 233 232 231 236 237 234 237 232 234 233 232 233 227 236 244 250 259 269 283 285 280 286 280 276 293 293 290 287 285 294 302 299 296 292 295 294 287 274 264 252 242 233 223 226 230 232 232 231 230 229 229 229 228 228 228 227 225 224 225 225 226 226 226 228 229 229 229 229 229 228
243 241 240 239 237 234 236 233 239 234 237 234 239 242 233 234 246 264 269 261 263 274 281 281 287 280 288 290 274 285 293 297 292 283 293 298 302 301 292 281 289 286 272 265 258 241 234 231 229 229 230 230 230 228 229 229 227 226 226 225 225 224 224 225 225 226 226 227 227 227 226 226 226 227
248 248 243 241 242 239 241 238 238 238 231 228 237 251 237 237 250 249 248 258 267 275 281 282 278 282 285 283 295 302 302 299 298 300 295 286 285 287 290 288 276 274 275 267 259 250 227 226 225 221 225 229 229 233 230 233 231 229 227 225 224 224 223 223 223 225 225 225 224 223 222 222 222 224
246 244 241 243 243 244 248 253 253 254 255 251 238 241 228 239 242 246 256 264 270 276 280 276 282 288 287 292 294 294 291 291 292 292 290 287 289 289 283 280 271 264 260 264 259 253 237 228 232 221 227 228 220 226 222 224 225 225 223 224 224 223 222 221 221 222 223 224 223 221 220 220 221 222
266 264 253 245 251 253 258 257 254 251 249 246 241 245 246 243 238 252 257 263 268 274 275 276 280 281 287 288 290 292 294 293 291 289 290 287 287 283 287 289 291 247 242 256 257 255 237 225 234 230 227 228 222 220 226 222 221 223 218 216 218 219 219 220 219 220 221 221 220 218 217 218 219 221
260 261 265 262 253 255 251 254 262 269 266 255 247 245 246 249 245 237 236 252 267 269 275 276 277 284 286 291 294 294 297 298 296 289 286 282 280 277 272 268 268 273 255 267 258 256 241 217 229 236 231 227 223 221 221 220 218 217 219 215 215 216 217 218 217 217 216 217 217 217 216 216 217 217
253 254 256 261 256 254 264 267 263 263 275 271 264 262 262 259 255 253 242 234 240 261 267 269 273 275 283 289 288 290 295 296 292 292 284 277 272 265 263 261 265 264 251 272 270 264 249 210 223 233 232 226 223 224 219 216 213 214 214 214 213 213 214 215 214 214 214 215 216 216 215 214 214 213
252 250 249 254 266 268 269 266 267 269 264 270 276 273 264 263 266 259 251 250 248 244 248 256 260 266 273 279 285 287 290 293 291 288 283 279 273 267 259 261 258 260 240 248 273 274 258 223 223 229 232 222 225 224 218 211 211 210 210 211 213 212 211 211 211 212 214 214 215 214 214 212 210 209
257 258 249 249 256 268 270 264 259 261 262 266 267 268 269 267 269 271 274 270 272 268 245 241 256 269 274 275 279 282 283 279 278 276 276 275 272 270 268 263 254 257 235 234 243 259 261 231 224 228 228 219 224 223 223 208 207 207 207 209 210 210 209 208 209 211 213 214 214 213 211 208 205 206
257 253 250 250 261 262 265 269 269 254 249 254 263 266 271 279 280 277 268 272 274 266 262 263 265 269 273 277 279 279 282 283 280 277 273 269 265 261 256 253 250 246 230 210 226 248 258 235 226 232 226 217 226 222 223 211 207 207 207 209 209 208 207 207 208 210 212 213 213 210 206 203 201 201
263 258 250 247 257 267 267 270 274 262 218 239 245 262 280 284 287 285 289 271 261 260 265 270 273 274 276 277 278 279 280 278 278 280 277 271 263 249 248 248 243 242 226 214 211 232 250 230 219 230 220 205 220 222 220 218 208 207 208 208 207 205 205 206 208 210 211 211 210 206 202 198 196 195
271 265 268 271 268 268 271 274 270 209 197 237 252 271 274 285 291 293 295 298 292 289 286 282 279 279 281 282 282 283 283 285 284 280 276 275 265 251 239 243 239 242 225 226 200 221 232 228 217 225 205 203 223 220 219 216 208 206 210 208 205 203 203 205 208 210 211 209 206 203 197 194 188 179
280 285 288 284 281 276 282 296 253 187 199 248 256 250 269 279 284 284 311 311 310 313 313 302 297 292 287 289 294 295 291 287 283 277 277 273 261 251 236 230 233 233 234 223 191 216 224 214 217 195 197 223 228 209 213 207 202 185 192 204 209 207 202 205 206 207 209 206 203 200 194 187 175 175
292 290 294 298 294 298 317 293 146 147 219 247 247 247 256 282 280 310 311 301 299 297 294 289 288 287 291 297 299 304 305 300 299 294 283 274 263 248 231 220 215 220 226 206 187 209 216 205 213 190 200 195 229 206 187 208 202 193 180 183 194 207 205 208 210 210 206 203 200 195 188 179 177 158
283 294 293 291 289 290 306 160 213 235 215 215 221 235 260 263 284 305 295 297 291 289 288 287 289 290 296 303 303 309 310 307 308 306 295 288 272 245 222 213 211 218 220 203 183 202 214 196 204 181 199 210 205 186 231 208 198 195 189 185 194 182 178 199 198 201 207 205 200 191 183 181 184 185
277 277 284 287 290 303 275 200 282 235 209 209 221 243 246 272 288 296 289 293 296 288 288 290 293 295 307 315 315 315 317 318 320 316 312 310 292 246 217 208 204 206 218 200 192 201 202 206 198 191 192 197 219 180 168 222 211 204 189 194 196 180 179 181 187 196 187 180 184 187 187 185 188 192
280 287 288 286 297 310 313 290 243 210 203 203 225 243 278 305 313 308 302 301 299 292 294 303 301 303 315 321 321 320 322 322 323 324 321 322 309 240 221 215 214 214 214 185 206 213 206 215 193 194 194 193 195 191 196 190 224 168 186 197 196 169 177 169 184 194 166 168 189 188 185 188 190 193
273 282 289 301 305 300 298 265 200 193 199 207 214 243 340 348 340 327 317 309 301 305 310 315 313 314 317 319 317 318 319 321 323 323 327 326 319 249 226 219 221 220 204 201 203 205 207 213 201 205 198 187 188 190 201 205 159 170 187 179 181 176 171 183 190 188 173 162 111 155 142 161 192 189
287 298 296 291 289 286 289 164 169 186 214 225 242 349 6 9 348 335 318 315 319 325 330 320 314 316 318 315 311 310 313 318 321 327 333 329 337 310 248 225 221 221 210 215 220 204 208 210 208 198 197 191 190 198 191 187 179 186 174 144 189 182 154 180 182 184 168 154 167 165 182 168 171 188
312 301 296 300 302 41 114 143 166 173 242 332 18 11 17 11 350 329 324 323 333 331 325 319 321 317 314 316 314 316 323 333 332 333 329 332 349 349 293 229 240 231 224 226 244 232 216 219 224 200 192 196 198 190 191 164 180 177 174 188 178 101 188 176 187 181 158 166 175 183 188 188 181 173
325 317 326 326 60 75 76 76 58 21 359 12 13 13 6 2 345 324 326 325 323 320 316 320 322 317 310 310 330 335 334 337 332 330 323 339 353 358 356 234 237 221 225 232 242 216 201 210 193 188 202 213 206 200 182 182 181 169 189 187 161 190 182 174 174 173 174 180 179 174 184 189 183 194
316 313 313 3 64 45 43 34 30 16 10 7 8 3 354 350 334 330 324 315 302 298 301 305 307 317 331 339 336 333 336 338 330 331 336 345 347 358 360 20 15 11 8 326 275 226 211 188 189 214 196 192 201 200 165 186 202 191 184 187 195 195 139 179 176 184 172 165 153 178 189 186 175 179
316 341 34 41 37 43 38 32 21 8 358 4 352 349 340 341 332 330 344 349 343 333 331 335 333 329 333 334 338 337 338 339 335 335 340 344 346 347 7 21 16 16 2 349 338 324 236 210 199 201 215 213 218 177 177 201 212 191 193 185 193 195 177 181 183 172 156 159 170 173 181 191 187 183
42 52 58 42 39 39 38 28 21 8 0 354 351 346 338 339 340 349 348 346 336 332 333 331 331 334 334 338 340 342 342 336 337 339 345 343 343 346 359 11 13 3 6 354 348 340 338 247 202 191 122 78 61 42 11 224 204 198 200 192 191 203 184 171 178 170 169 183 176 173 182 190 193 185
50 59 60 43 40 37 44 43 20 10 359 359 346 342 335 336 345 349 349 344 335 334 334 333 334 330 336 336 339 342 343 339 337 342 347 346 342 348 352 3 6 6 1 357 357 347 328 303 192 147 145 116 89 76 49 29 241 181 187 203 198 196 176 170 175 174 178 178 174 186 190 193 192 189
53 52 64 55 42 36 42 34 26 12 0 356 348 339 347 347 346 347 348 337 330 329 333 337 336 337 338 341 341 340 341 342 345 346 347 350 342 346 353 357 359 1 3 2 352 344 340 337 232 173 167 161 138 136 59 46 56 12 248 214 183 189 175 172 175 170 175 178 181 181 179 189 197 189
79 69 70 67 56 43 34 11 24 13 1 352 346 341 341 336 335 332 328 325 326 329 330 327 332 336 337 341 342 343 343 351 348 345 350 346 344 354 352 350 357 355 3 1 350 353 3 359 4 211 181 170 173 160 102 106 52 49 11 303 233 182 176 170 170 184 186 181 188 186 192 189 198 195
84 78 81 67 58 43 33 22 8 3 350 345 342 332 335 329 327 327 326 338 338 337 335 338 337 339 343 344 346 346 345 346 348 353 353 351 352 354 354 348 349 354 354 356 355 4 9 16 27 19 354 177 175 140 132 37 15 11 3 252 232 306 186 174 198 201 195 192 189 191 181 196 201 194
68 71 71 80 68 58 35 18 10 359 352 346 349 346 342 342 340 339 344 346 340 340 336 338 343 341 342 344 346 348 346 349 357 355 351 352 354 353 353 350 348 353 354 359 359 8 16 25 21 12 23 52 59 69 110 111 69 56 34 40 17 343 14 257 209 194 187 190 198 165 157 52 65 123
80 69 55 52 59 59 64 33 17 5 3 358 349 347 1 349 346 341 345 348 345 341 339 340 338 337 346 349 349 346 351 355 353 349 352 349 352 356 358 350 350 355 354 358 2 8 14 15 15 14 25 47 76 86 96 106 122 70 51 37 39 50 9 314 356 186 192 186 157 164 173 154 159 149
87 65 53 50 58 45 64 44 20 10 14 6 5 360 6 355 349 351 346 351 346 343 344 342 342 341 342 348 350 351 350 349 352 352 352 353 354 358 359 356 360 358 354 357 356 1 10 4 9 9 20 33 11 259 241 66 53 40 47 46 41 49 50 52 47 23 7 344 171 170 166 176 172 163
106 117 132 95 70 28 40 49 35 36 26 19 15 8 355 358 358 354 353 353 349 347 344 343 343 340 338 345 347 350 353 351 349 350 353 354 354 354 2 6 2 352 353 348 343 342 338 349 7 20 20 30 22 52 60 59 69 52 47 40 41 46 55 55 55 52 47 23 345 91 122 98 106 154
117 121 118 91 78 46 50 62 52 45 32 21 20 3 1 358 353 358 357 351 348 348 346 341 339 340 337 337 346 345 349 353 351 348 346 353 356 357 355 355 352 346 345 339 332 338 342 352 10 20 29 37 31 43 59 51 51 51 42 40 36 30 36 40 46 51 50 46 46 63 15 308 165 176
149 147 146 137 77 70 74 75 63 47 39 28 10 6 12 6 359 354 346 345 347 346 339 341 340 341 338 333 340 343 353 351 348 347 349 346 349 352 351 351 354 354 357 358 348 350 342 354 4 11 36 37 28 41 49 48 42 31 29 37 37 36 35 28 34 39 45 43 31 34 64 66 51 352
62 126 135 105 87 83 86 74 65 51 40 24 15 8 16 8 2 346 346 347 348 345 345 343 340 338 338 333 343 352 348 346 346 347 347 348 351 353 355 358 2 2 5 355 354 354 349 346 3 23 43 31 24 39 44 52 45 31 22 29 35 34 36 31 32 31 36 45 25 25 54 62 57 49